Fremont, MI

1:37 AM EST on February 23, 2018 (GMT -0500)
Fremont

Weather History for KFFX - June, 2014

Change the Weather History Date:

Tuesday, June 10, 2014

  Actual Average (KMKG) Record (KMKG)
Temperature  
Mean Temperature 66 °F -  
Max Temperature 75 °F 73 °F 89 °F (1999)
Min Temperature 58 °F 51 °F 33 °F (1980)
Cooling Degree Days 2    
Growing Degree Days 16 (Base 50)    
Moisture  
Dew Point 48 °F    
Average Humidity 51    
Maximum Humidity 66    
Minimum Humidity 35    
Precipitation  
Precipitation 0.00 in - - ()
Sea Level Pressure  
Sea Level Pressure 29.94 in    
Wind  
Wind Speed 6 mph (East)    
Max Wind Speed 12 mph    
Max Gust Speed 18 mph    
Visibility 10 miles    
Events Rain    
Averages and records for this station are not official NWS values.
T = Trace of Precipitation, MM = Missing Value Source: NWS Daily Summary

Daily Weather History Graph

Daily Weather History Graph

Search for Another Location

Airport or City:

Trip Planner

Search our weather history database for the weather conditions in past years. The results will help you decide how hot, cold, wet, or windy it might be!

Date:

Astronomy

Jun. 10, 2014 Rise Set
Actual Time 6:03 AM EDT 9:24 PM EDT
Civil Twilight 5:27 AM EDT 9:59 PM EDT
Nautical Twilight 4:41 AM EDT 10:45 PM EDT
Astronomical Twilight 3:44 AM EDT 11:43 PM EDT
Moon 6:44 PM EDT (6/10) 4:13 AM EDT (6/10)
Length of Visible Light 16h 32m
Length of Day
15h 21m
Waxing Gibbous, 92% of the Moon is Illuminated
Jun 10
Waxing Gibbous
Jun 13
Full
Jun 19
Last Quarter
Jun 27
New
Jul 5
First Quarter

Hourly Weather History & Observations

Time (EDT) Temp. Dew Point Humidity Pressure Visibility Wind Dir Wind Speed Gust Speed Precip Events Conditions
12:12 AM 63.5 °F 44.8 °F 51% 29.97 in 10.0 mi NNE 5.8 mph - N/A   Clear
12:33 AM 62.6 °F 45.1 °F 53% 29.98 in 10.0 mi Calm Calm - N/A   Clear
12:53 AM 62.1 °F 44.6 °F 53% 29.98 in 10.0 mi ENE 4.6 mph - N/A   Clear
1:13 AM 62.6 °F 44.2 °F 51% 29.98 in 10.0 mi ENE 5.8 mph - N/A   Clear
1:33 AM 62.8 °F 45.1 °F 53% 29.97 in 10.0 mi ENE 8.1 mph - N/A   Clear
1:53 AM 62.8 °F 46.6 °F 55% 29.97 in 10.0 mi ENE 9.2 mph - N/A   Clear
2:13 AM 63.3 °F 47.3 °F 56% 29.97 in 10.0 mi ENE 8.1 mph - N/A   Clear
2:33 AM 62.6 °F 47.3 °F 57% 29.97 in 10.0 mi ENE 6.9 mph - N/A   Clear
2:53 AM 61.7 °F 47.5 °F 60% 29.97 in 10.0 mi East 5.8 mph - N/A   Clear
3:13 AM 60.8 °F 48.2 °F 63% 29.96 in 10.0 mi ENE 4.6 mph - N/A   Clear
3:33 AM 60.4 °F 47.5 °F 62% 29.96 in 10.0 mi ENE 3.5 mph - N/A   Clear
3:54 AM 59.7 °F 47.3 °F 63% 29.96 in 10.0 mi East 6.9 mph - N/A   Clear
4:14 AM 59.5 °F 46.9 °F 63% 29.95 in 10.0 mi ENE 5.8 mph - N/A   Clear
4:34 AM 59.5 °F 46.9 °F 63% 29.96 in 10.0 mi East 3.5 mph - N/A   Clear
4:54 AM 59.0 °F 46.9 °F 64% 29.95 in 10.0 mi East 5.8 mph - N/A   Clear
5:14 AM 58.6 °F 47.1 °F 66% 29.95 in 10.0 mi East 4.6 mph - N/A   Clear
5:34 AM 58.6 °F 47.3 °F 66% 29.95 in 10.0 mi East 5.8 mph - N/A   Clear
5:54 AM 58.8 °F 47.3 °F 66% 29.95 in 10.0 mi East 6.9 mph - N/A   Clear
6:14 AM 58.5 °F 47.3 °F 66% 29.95 in 10.0 mi East 6.9 mph - N/A   Clear
6:34 AM 58.6 °F 47.3 °F 66% 29.96 in 10.0 mi East 3.5 mph - N/A   Clear
6:55 AM 58.8 °F 47.7 °F 66% 29.96 in 10.0 mi East 6.9 mph - N/A   Clear
7:15 AM 59.2 °F 47.3 °F 65% 29.96 in 10.0 mi East 5.8 mph - N/A   Clear
7:35 AM 59.9 °F 46.4 °F 61% 29.96 in 10.0 mi East 4.6 mph - N/A   Clear
7:55 AM 60.1 °F 46.4 °F 61% 29.96 in 10.0 mi East 8.1 mph - N/A   Clear
8:15 AM 60.4 °F 46.4 °F 60% 29.97 in 10.0 mi East 4.6 mph - N/A   Clear
8:30 AM 60.8 °F 46.6 °F 59% 29.97 in 10.0 mi East 5.8 mph - N/A   Clear
8:50 AM 61.2 °F 46.8 °F 59% 29.97 in 10.0 mi East 4.6 mph - N/A   Clear
9:10 AM 62.1 °F 47.5 °F 59% 29.97 in 10.0 mi East 4.6 mph - N/A   Clear
9:51 AM 63.1 °F 47.3 °F 56% 29.97 in 10.0 mi ESE 6.9 mph - N/A   Clear
10:11 AM 64.0 °F 48.0 °F 56% 29.97 in 10.0 mi East 4.6 mph - N/A   Clear
10:31 AM 65.1 °F 48.7 °F 55% 29.98 in 10.0 mi ESE 5.8 mph - N/A   Clear
11:11 AM 65.7 °F 49.6 °F 56% 29.98 in 10.0 mi ESE 5.8 mph - N/A   Clear
11:31 AM 67.5 °F 50.0 °F 53% 29.98 in 10.0 mi East 6.9 mph - N/A   Clear
11:51 AM 68.9 °F 50.4 °F 52% 29.98 in 10.0 mi East 6.9 mph - N/A   Clear
12:11 PM 69.8 °F 50.5 °F 50% 29.98 in 10.0 mi East 6.9 mph - N/A   Clear
12:31 PM 70.9 °F 51.1 °F 49% 29.97 in 10.0 mi East 5.8 mph - N/A   Clear
1:12 PM 71.6 °F 51.3 °F 49% 29.96 in 10.0 mi East 6.9 mph - N/A   Clear
1:32 PM 72.5 °F 50.2 °F 45% 29.97 in 10.0 mi East 6.9 mph - N/A   Clear
1:52 PM 73.0 °F 49.1 °F 43% 29.96 in 10.0 mi East 6.9 mph - N/A   Clear
2:12 PM 73.8 °F 48.6 °F 41% 29.95 in 10.0 mi East 11.5 mph - N/A   Clear
2:32 PM 74.1 °F 48.6 °F 40% 29.95 in 10.0 mi East 6.9 mph - N/A   Clear
3:12 PM 75.2 °F 48.9 °F 39% 29.94 in 10.0 mi East 8.1 mph 16.1 mph N/A   Clear
3:32 PM 74.3 °F 48.4 °F 40% 29.94 in 10.0 mi East 9.2 mph - N/A   Clear
3:52 PM 74.7 °F 49.1 °F 40% 29.94 in 10.0 mi East 8.1 mph - N/A   Clear
4:13 PM 74.8 °F 50.0 °F 42% 29.94 in 10.0 mi East 6.9 mph - N/A   Clear
4:33 PM 74.3 °F 51.1 °F 44% 29.94 in 10.0 mi East 6.9 mph - N/A   Clear
5:13 PM 75.0 °F 52.2 °F 45% 29.93 in 10.0 mi East 9.2 mph - N/A   Clear
5:33 PM 75.7 °F 52.5 °F 44% 29.93 in 10.0 mi East 9.2 mph - N/A   Clear
5:53 PM 75.7 °F 49.6 °F 40% 29.92 in 10.0 mi East 8.1 mph 16.1 mph N/A   Clear
6:13 PM 75.2 °F 49.5 °F 40% 29.91 in 10.0 mi East 11.5 mph 18.4 mph N/A   Clear
6:34 PM 74.1 °F 48.9 °F 41% 29.91 in 10.0 mi East 10.4 mph - N/A   Clear
6:54 PM 73.6 °F 49.1 °F 42% 29.90 in 10.0 mi ENE 9.2 mph - N/A   Clear
7:14 PM 73.2 °F 48.0 °F 41% 29.90 in 10.0 mi ENE 9.2 mph - N/A   Scattered Clouds
7:34 PM 72.5 °F 48.7 °F 43% 29.90 in 10.0 mi ENE 8.1 mph - N/A   Mostly Cloudy
7:54 PM 72.1 °F 48.6 °F 43% 29.91 in 10.0 mi East 8.1 mph - N/A   Overcast
8:14 PM 71.6 °F 48.0 °F 43% 29.91 in 10.0 mi East 9.2 mph - N/A   Scattered Clouds
8:34 PM 71.2 °F 46.9 °F 42% 29.90 in 10.0 mi East 8.1 mph - N/A   Scattered Clouds
8:54 PM 70.7 °F 47.5 °F 44% 29.90 in 10.0 mi East 6.9 mph - N/A   Mostly Cloudy
9:14 PM 70.3 °F 47.3 °F 44% 29.90 in 10.0 mi East 9.2 mph - N/A   Overcast
9:35 PM 70.0 °F 45.5 °F 41% 29.89 in 10.0 mi ENE 9.2 mph - N/A   Overcast
9:55 PM 69.8 °F 45.0 °F 41% 29.90 in 10.0 mi East 8.1 mph - N/A   Overcast
10:15 PM 69.3 °F 44.4 °F 41% 29.89 in 10.0 mi East 6.9 mph - N/A   Overcast
10:30 PM 69.4 °F 43.3 °F 39% 29.89 in 10.0 mi East 9.2 mph - N/A   Overcast
11:10 PM 69.4 °F 41.2 °F 36% 29.89 in 10.0 mi East 10.4 mph - N/A   Overcast
11:30 PM 68.9 °F 40.1 °F 35% 29.89 in 10.0 mi ESE 8.1 mph - N/A   Overcast
11:51 PM 67.8 °F 41.0 °F 38% 29.89 in 10.0 mi ESE 8.1 mph - N/A Rain Light Rain